Dewpoint
55 56 56 56 55 54 54 54 54 55 55 55 55 56 55 55 55 55 54 53 53 53 53 53 52 52 52 52 53 52 50 50 46 43 45 48 48 53 51 51 50 53 52
55 56 56 56 55 54 54 54 54 53 54 55 55 55 54 54 55 55 54 53 52 52 52 51 50 50 50 51 52 51 50 50 49 47 45 47 48 49 52 51 52 51 52
55 55 55 55 54 53 53 54 54 54 53 53 54 54 53 53 54 54 53 53 52 51 51 50 50 52 52 52 51 51 51 50 51 50 46 48 50 50 50 51 52 53 53
55 55 54 54 54 52 53 53 53 53 53 53 53 54 54 54 54 54 54 53 52 52 51 51 51 51 51 51 51 51 50 50 51 51 50 50 48 48 48 48 49 51 50
55 54 54 53 53 53 52 52 53 53 53 53 53 53 54 54 54 54 53 53 53 53 53 53 52 50 50 50 50 51 51 51 51 51 50 49 48 48 47 48 49 50 50
48 49 54 54 54 54 53 53 53 53 52 52 52 53 53 53 53 52 53 53 53 53 53 53 53 52 53 50 50 50 52 52 51 50 49 48 49 49 49 49 49 50 49
40 41 42 46 48 49 54 54 53 53 53 52 52 52 51 50 41 46 50 52 53 53 53 53 53 52 52 52 50 48 48 48 48 50 50 50 50 50 49 49 49 49 49
35 37 38 39 40 42 43 44 46 48 47 49 47 52 44 36 36 38 43 47 50 51 52 51 51 52 49 48 51 51 50 50 48 48 48 47 40 36 38 42 43 43 44
33 34 36 36 37 38 39 40 41 41 38 36 36 37 36 34 34 35 39 46 47 48 38 34 36 39 36 38 45 48 48 39 34 33 32 31 29 28 29 37 40 40 41
32 32 33 35 35 36 37 38 37 35 34 32 31 31 31 31 32 34 40 43 44 34 31 30 31 32 32 34 39 41 43 37 31 28 26 25 25 25 24 25 27 32 34
31 31 31 32 33 34 34 35 34 33 31 30 29 30 29 30 30 31 33 35 31 29 27 27 29 29 29 29 30 31 33 30 27 26 24 24 22 22 23 23 23 24 23
30 29 29 30 31 32 32 32 33 32 30 30 29 29 29 29 28 28 28 29 28 26 25 26 27 26 26 26 25 25 25 25 23 22 21 22 22 21 22 22 22 22 23
29 28 28 28 28 28 30 30 30 31 31 30 30 29 29 30 29 27 26 26 26 26 26 25 25 25 25 25 24 24 24 23 22 21 21 21 22 24 24 23 23 22 19
27 26 26 25 26 27 26 27 28 28 28 28 28 28 28 28 29 29 29 28 27 26 26 25 25 24 24 25 26 25 26 26 25 23 23 23 23 22 21 21 20 20 15
27 26 25 24 24 23 24 26 25 26 27 27 27 27 26 25 24 25 27 26 26 25 27 27 25 24 23 23 22 22 22 22 22 22 21 20 19 17 15 15 13 11 8
26 25 26 25 24 23 21 21 23 24 24 25 25 25 24 24 22 22 22 22 23 25 25 23 22 22 22 21 21 20 19 19 18 18 16 14 12 12 11 11 10 7 5
24 24 24 24 23 23 23 22 20 20 20 22 22 23 23 22 21 21 20 20 22 23 22 21 20 20 19 17 16 14 13 12 12 12 12 13 11 10 11 10 10 8 4
23 24 24 24 23 23 22 22 22 20 19 18 17 19 19 19 19 19 20 21 20 19 18 18 17 15 12 10 9 10 10 11 10 9 11 11 11 10 8 6 7 7 3
21 22 22 21 21 21 21 21 20 19 19 18 19 18 17 17 17 17 18 18 17 15 13 12 12 11 10 10 11 10 10 9 10 11 10 9 10 8 7 7 6 5 4
20 19 20 20 20 20 19 19 18 18 17 16 15 15 17 17 16 15 15 14 13 11 10 9 9 9 10 9 10 9 9 8 7 7 9 9 9 8 7 6 7 6 3
19 19 19 19 19 18 18 17 17 16 15 14 12 11 11 14 12 11 10 10 10 9 10 9 9 9 8 8 7 7 7 7 6 6 7 6 7 7 6 5 5 4 2
18 18 18 17 17 17 16 15 15 14 13 13 11 8 8 10 8 7 7 8 9 8 8 8 7 6 6 6 6 6 5 5 5 5 5 4 5 5 5 4 5 5 4
17 17 16 15 15 14 14 13 13 12 10 9 7 7 7 7 7 6 6 6 6 6 6 6 5 4 4 5 5 4 3 3 3 3 4 4 4 5 5 5 3 4 4
14 14 13 13 13 12 12 10 7 6 7 8 7 7 6 6 6 5 5 5 5 5 5 4 2 1 1 3 4 2 1 1 2 2 2 3 3 3 4 3 3 3 3
12 12 11 11 10 10 9 8 8 7 7 7 6 5 4 4 4 4 4 3 3 3 2 2 2 1 1 -0 -0 -1 -2 -2 -1 -1 2 2 2 2 2 2 2 3 2
8 8 9 9 9 8 8 7 7 6 5 5 4 4 4 3 2 3 2 1 1 0 -0 1 0 -0 -0 0 -0 -0 -2 -3 -3 -3 -1 2 2 2 2 2 1 2 2
Wind_Speed
20 21 21 20 18 16 15 15 14 14 12 11 11 12 12 13 13 13 13 14 15 15 13 13 14 11 13 14 15 13 15 11 14 18 20 16 17 17 18 21 17 17 20
18 18 19 19 18 17 15 15 15 15 14 12 11 11 12 14 15 16 15 16 17 18 18 19 21 21 22 20 17 18 16 17 18 20 18 18 28 19 22 23 21 19 21
18 18 17 17 17 16 15 14 15 15 15 14 13 14 15 15 16 16 17 18 20 21 21 23 22 16 16 16 16 15 17 18 16 17 24 23 22 22 23 23 23 22 18
16 16 16 16 15 14 13 13 13 13 14 16 15 14 15 15 15 15 16 17 18 18 20 21 20 20 21 20 19 21 20 17 15 17 21 20 22 23 23 24 23 22 25
14 14 13 12 12 12 11 12 12 12 13 14 14 14 15 15 15 18 19 19 19 18 19 20 22 26 28 28 24 25 22 22 22 22 24 20 22 23 25 25 26 25 25
17 14 6 11 11 11 11 10 10 11 12 12 14 15 15 14 17 23 20 21 22 24 24 24 23 25 26 30 36 33 25 25 26 25 25 27 30 29 29 28 27 27 30
20 19 18 15 13 11 6 3 7 10 11 12 12 13 13 3 13 9 22 22 18 20 22 22 22 21 22 25 27 33 34 35 31 28 29 28 27 23 19 25 28 27 27
21 20 18 14 15 17 16 12 10 9 8 5 8 4 12 13 16 11 6 15 17 16 12 10 9 11 9 9 16 20 19 23 21 24 26 23 11 8 8 9 12 13 10
22 20 18 15 18 17 16 14 13 12 14 16 14 15 14 14 20 14 5 10 15 9 12 18 9 8 15 13 11 17 17 6 19 26 23 20 21 21 16 6 12 14 18
21 21 18 18 20 18 15 15 15 15 16 15 19 18 17 18 24 23 10 2 6 13 15 16 23 17 17 12 4 9 14 5 14 13 13 19 19 19 22 16 9 3 3
18 23 20 17 14 18 16 15 16 16 16 17 18 16 19 19 23 27 24 16 14 15 16 17 17 21 23 23 21 15 12 16 18 17 17 15 18 16 18 18 17 12 6
19 19 18 16 17 16 18 15 14 14 15 14 14 14 13 17 23 25 25 22 18 18 16 14 17 25 26 24 22 24 24 19 16 17 16 16 14 15 14 13 16 18 17
16 17 15 15 16 19 16 16 13 14 13 13 12 13 13 12 13 22 25 23 21 19 16 18 19 21 23 25 26 23 18 16 16 17 15 13 12 9 8 10 12 14 16
13 15 16 19 19 18 18 16 14 13 12 12 12 12 13 13 11 10 11 13 16 16 16 17 18 20 21 18 18 19 17 15 15 15 13 11 10 10 11 10 9 6 10
11 11 12 14 17 20 22 18 18 21 16 13 13 13 12 13 15 14 12 12 13 13 13 13 14 15 15 16 16 16 14 14 14 12 10 10 9 9 10 8 8 9 9
10 10 10 10 9 11 14 18 28 26 25 24 21 16 17 18 17 19 19 18 15 12 14 15 15 14 14 13 13 13 13 13 11 10 9 9 9 8 8 8 8 9 9
10 8 7 7 7 8 8 10 13 17 26 26 24 22 21 19 20 21 21 21 16 15 17 15 14 13 12 12 12 11 12 11 9 10 9 9 8 8 8 8 8 7 7
10 11 9 9 9 9 9 9 8 9 10 13 20 20 22 21 19 16 11 13 18 19 16 14 13 12 11 11 11 11 10 10 10 10 10 10 8 8 8 8 8 7 6
10 10 9 9 9 9 9 9 9 10 10 10 10 13 13 18 21 23 21 17 15 14 12 12 11 11 11 11 11 11 11 11 10 9 9 9 9 7 7 7 6 7 5
10 10 9 8 8 9 9 9 9 10 11 12 12 12 10 11 15 16 16 14 13 12 11 11 11 11 11 10 9 8 8 7 7 8 8 7 7 6 6 6 6 6 6
7 8 8 9 9 9 9 10 10 10 11 12 13 13 13 12 12 12 12 12 11 11 10 10 10 10 9 9 8 8 8 7 7 7 7 6 6 5 5 5 5 5 6
7 7 8 8 8 9 9 9 9 9 9 10 10 11 11 11 11 11 11 10 10 10 10 9 9 9 9 9 8 7 7 7 7 6 5 5 5 4 4 4 5 4 6
7 7 8 8 8 8 9 8 8 8 9 9 8 9 10 10 10 10 10 10 10 10 10 9 8 8 8 7 8 8 7 7 7 7 5 5 4 4 4 4 4 5 6
8 7 7 8 8 7 7 8 9 9 8 8 8 8 8 8 8 8 8 8 8 8 8 7 8 9 7 6 7 7 8 8 7 5 6 5 4 3 3 4 4 4 6
7 7 7 6 6 6 6 7 6 6 6 6 6 6 6 6 6 6 6 6 6 5 6 5 6 6 6 6 6 7 8 8 8 8 5 5 4 5 4 5 5 6 5
8 7 7 6 6 6 5 5 5 5 5 5 5 5 4 4 4 4 4 4 4 4 5 4 5 5 4 2 4 6 7 8 8 7 7 6 5 5 5 5 5 7 6
Wind_Direction
173 172 176 169 175 175 178 171 172 168 171 173 180 173 172 176 179 180 182 178 189 192 185 190 197 187 205 215 222 222 223 226 252 256 245 260 246 233 237 230 228 219 231
158 169 173 169 172 177 178 174 175 177 176 181 183 183 178 184 182 187 186 191 196 200 198 199 213 223 221 220 223 229 238 236 231 245 248 245 255 243 249 247 239 226 233
151 164 164 167 174 178 177 178 181 184 185 187 194 190 187 190 189 191 195 199 201 205 207 210 217 211 208 218 221 230 242 253 250 250 258 255 258 262 248 254 255 254 241
156 160 162 168 175 174 176 179 183 191 194 196 202 201 201 196 197 201 199 202 213 215 215 216 213 211 220 226 226 229 232 239 244 244 251 254 262 266 263 260 258 245 249
144 150 151 161 165 171 176 182 187 194 202 205 208 211 205 209 211 207 211 212 216 214 216 220 224 226 226 232 235 236 231 229 235 234 247 248 252 255 255 258 259 259 257
60 55 124 155 151 158 163 184 191 201 208 210 215 218 219 219 210 210 219 218 221 223 225 222 225 229 231 228 227 233 234 226 232 236 241 243 246 249 254 255 259 262 265
57 50 45 52 66 62 105 172 205 216 212 212 218 221 221 219 13 258 228 238 228 229 232 234 232 234 235 243 237 237 240 243 242 249 248 248 255 266 282 274 268 268 272
53 45 42 45 57 54 53 51 51 46 38 48 24 308 98 45 21 11 294 242 263 282 288 334 323 302 347 319 263 254 236 239 254 259 262 273 301 314 284 266 275 285 297
53 45 39 36 54 53 55 45 45 65 62 60 55 58 61 37 14 5 330 231 236 260 66 42 19 351 350 340 294 271 267 82 70 79 78 72 58 40 18 292 276 273 272
39 47 35 39 48 46 50 58 63 68 74 71 64 56 49 37 19 16 18 23 116 98 70 52 41 47 40 25 305 283 269 157 117 83 62 58 44 40 44 40 2 285 300
38 49 37 35 46 52 44 52 67 73 73 71 69 56 51 42 36 35 38 60 85 82 69 58 47 53 54 55 59 59 94 99 86 80 75 66 63 46 45 43 41 50 77
50 52 44 36 42 54 59 47 56 73 74 72 75 71 62 55 50 52 59 68 76 84 81 75 68 64 62 62 64 68 71 78 80 79 75 66 64 59 55 57 57 61 58
54 56 57 52 53 52 54 60 48 54 64 65 66 66 63 60 67 66 67 71 75 83 83 85 80 73 68 64 63 67 72 75 80 79 78 75 71 75 84 69 63 67 63
53 62 61 56 54 53 58 53 63 56 61 65 67 68 64 55 54 60 72 83 86 86 85 81 80 77 70 65 64 61 59 61 74 80 81 79 74 64 57 45 52 57 57
52 57 64 67 70 69 57 50 60 55 53 68 65 62 70 64 57 61 74 82 86 88 90 80 74 71 71 69 67 64 64 64 66 68 72 73 69 67 60 53 58 66 66
51 50 53 64 68 80 84 72 56 57 59 60 59 71 70 72 73 73 76 80 81 84 83 80 74 70 68 65 63 61 56 53 52 58 60 60 61 58 65 61 61 61 64
47 47 62 67 75 83 85 91 89 69 57 53 61 64 69 73 72 73 72 71 66 77 74 70 67 63 60 58 57 56 55 47 47 50 52 52 58 62 56 57 56 55 59
56 51 60 61 68 74 78 78 81 88 81 69 56 60 62 64 62 58 63 73 63 59 63 64 61 57 54 54 52 51 50 49 48 51 51 45 41 45 51 50 52 45 41
44 55 66 74 72 80 86 87 87 86 83 76 74 65 57 63 60 57 56 62 64 62 60 61 58 58 58 58 55 54 51 46 37 43 50 45 36 37 47 46 65 51 19
52 49 58 67 70 70 70 74 76 74 71 65 55 41 42 51 53 53 56 62 65 65 64 65 59 56 55 55 52 46 53 49 47 46 43 41 40 34 43 35 27 25 23
44 56 54 63 62 63 65 67 68 70 70 68 61 47 40 63 63 61 62 59 60 60 57 59 58 52 53 50 46 45 37 42 33 34 32 41 25 31 30 33 21 18 7
40 48 55 58 59 60 62 62 63 65 67 71 72 63 55 65 67 67 64 60 57 57 54 54 53 50 41 34 31 33 38 32 24 18 22 15 8 28 20 20 2 0 359
37 47 56 61 65 68 64 63 66 68 70 68 67 64 61 64 63 63 60 53 52 52 45 48 51 44 43 41 32 30 25 26 17 3 349 356 357 5 356 358 355 344 352
38 46 54 57 52 65 71 75 76 68 70 71 70 68 67 68 68 64 56 49 53 54 52 57 51 37 26 30 30 33 28 10 353 0 343 341 334 321 326 322 330 338 329
47 59 63 66 69 78 83 78 77 75 75 75 76 76 75 71 67 60 57 56 46 48 50 37 22 21 37 35 31 24 19 6 357 334 318 310 327 308 321 307 324 313 325
48 53 57 60 67 69 77 84 86 87 84 82 78 70 65 67 60 62 59 47 37 36 8 20 14 11 352 2 16 7 348 343 338 332 313 301 299 294 295 295 300 300 306